Regional Weather Roundup
Issued by NWS State College, PA

Home | Current Version | Previous Version | Text Only | Print | Product List | Glossary On
Versions: 1 2 3 4 5 6 7 8 9 10 11 12 13 14 15 16 17 18 19 20 21 22 23 24 25 26 27 28 29 30 31 32 33 34 35 36 37 38 39 40 41 42 43 44 45 46 47 48 49 50
000
ASUS41 KCTP 232210
RWRCTP

REGIONAL WEATHER ROUNDUP
NATIONAL WEATHER SERVICE STATE COLLEGE PA
600 PM EDT SUN APR 23 2017

Note: "fair" indicates few or no clouds below 12,000 feet with no
significant weather and/or obstructions to visibility.

* = STATION THAT DOES NOT REPORT PRECIPITATION /E.G. RAIN...SNOW...ETC/
    THUNDER OR FOG.

PAZ002>004-007>009-013>016-020>023-029>032-232300-
WESTERN PENNSYLVANIA

CITY           SKY/WX    TMP DP  RH WIND       PRES   REMARKS
ERIE           CLOUDY    56  32  40 CALM      30.07R
MEADVILLE      CLOUDY    63  37  38 N9        30.04R
FRANKLIN*      CLOUDY    68  28  22 E6        30.03S
NEW CASTLE     FAIR      68  33  27 VRB3      30.03S
BEAVER COUNTY  NOT AVBL
BUTLER*        MOSUNNY   66  34  30 E3        30.04R
PITTSBURGH INT CLOUDY    68  32  26 SE3       30.01S
PITTSBURGH     MOSUNNY   66  29  24 SE6       30.01S
INDIANA*       SUNNY     68  25  19 SE9       30.05R
LATROBE        SUNNY     66  25  20 E7        30.03R
WASHINGTON CO* CLOUDY    64  36  34 NE5       30.03S
$$

PAZ004>006-010>012-017>019-024>028-033>037-041-042-045-046-049>053-232300-
CENTRAL PENNSYLVANIA

CITY           SKY/WX    TMP DP  RH WIND       PRES   REMARKS
BRADFORD       SUNNY     66  20  17 W8        30.03R
DUBOIS         SUNNY     67  21  17 CALM      30.02S
CLEARFIELD     SUNNY     68  25  19 S6        30.03
JOHNSTOWN      CLOUDY    60  28  29 E7        30.04R
ALTOONA        CLOUDY    63  40  42 SE6       30.05R
STATE COLLEGE  SUNNY     66  34  30 CALM      30.03S
WILLIAMSPORT   SUNNY     67  32  27 VRB5      30.02S
SELINSGROVE    CLOUDY    63  44  50 S9        30.05R
FT INDIANTOWN  PTSUNNY   63  36  35 SE5       30.06R
CAPITAL CITY   CLOUDY    64  35  34 SE6       30.06R
HARRISBURG     CLOUDY    64  42  44 SE6       30.06R
YORK           CLOUDY    62  44  51 SE3       30.06S
$$

PAZ038>040-043-044-047-048-054-055-060>062-067>071-232300-
EASTERN PENNSYLVANIA

CITY           SKY/WX    TMP DP  RH WIND       PRES   REMARKS
SCRANTON       SUNNY     69  29  22 VRB5      30.01F
MOUNT POCONO   CLOUDY    60  36  40 S9        30.04S
ALLENTOWN      MOSUNNY   67  38  34 CALM      30.05S
QUAKERTOWN*    CLEAR     64  37  36 S3        30.07R
READING        SUNNY     66  39  37 VRB3      30.04S
LANCASTER      PTSUNNY   63  48  58 SE5       30.06S
COATESVILLE    CLOUDY    63  41  45 CALM      30.08S
POTTSTOWN      MOSUNNY   63  37  38 CALM      30.07S
BLUE BELL      PTSUNNY   61  37  41 SE6       30.08S
DOYLESTOWN     MOSUNNY   64  36  35 CALM      30.05S
WILLOW GROVE   NOT AVBL
NORTH PHILA    CLOUDY    65  40  39 CALM      30.08S
PHILADELPHIA   CLOUDY    62  47  57 S16       30.07S
$$




USA.gov is the U.S. government's official web portal to all federal, state and local government web resources and services.